Temperature
17 16 14 14 14 14 13 13 12 12 12 12 11 11 11 11 10 10 10 11 11 11 11 11 11 11 11 11 11 11 11 12 12 12 12 11 11 11 12 13 13 13 13
18 17 15 14 14 13 13 13 12 12 12 12 11 11 11 10 10 10 10 10 10 10 10 11 11 10 10 10 11 11 11 12 12 12 12 12 11 11 11 11 12 12 12
18 17 15 14 14 13 13 12 12 12 12 12 11 11 11 10 10 10 10 10 10 10 10 10 10 11 10 10 11 11 11 12 12 12 12 11 11 10 10 11 11 11 11
18 17 16 15 14 14 13 12 12 12 12 11 11 11 11 10 10 10 10 10 10 10 10 10 10 11 11 10 10 11 11 12 12 12 11 11 11 10 10 10 10 10 11
18 17 16 15 14 13 13 13 12 12 12 11 11 11 10 10 10 10 10 10 10 10 10 10 10 11 11 11 11 11 11 12 11 11 11 11 11 10 10 10 10 10 10
18 17 16 15 14 13 13 12 12 12 12 11 11 10 10 10 10 10 10 10 10 10 10 10 10 11 11 11 11 11 11 11 11 11 11 11 10 9 9 10 10 10 10
18 17 16 15 14 13 13 12 12 12 11 11 11 10 10 10 10 10 10 10 10 10 10 10 10 10 10 10 10 11 11 11 11 11 11 11 10 10 9 9 10 10 10
17 17 16 14 14 13 13 12 12 11 11 11 10 10 10 10 10 10 10 10 10 10 10 10 10 10 10 10 10 10 10 10 10 10 10 10 10 10 9 9 9 9 9
17 16 16 14 13 13 12 12 12 11 11 10 10 10 10 10 9 9 9 9 9 9 10 10 10 10 9 10 10 10 10 10 10 10 10 10 10 10 9 8 9 9 9
16 16 15 14 13 12 12 12 11 11 11 10 10 10 10 9 9 9 9 9 9 9 9 9 9 9 9 9 9 9 9 9 9 9 9 9 9 9 8 8 8 8 8
16 15 15 14 13 12 12 11 11 11 10 10 10 10 9 9 9 9 9 8 8 8 8 8 8 8 8 9 9 9 9 9 9 9 9 9 9 9 8 8 7 7 8
16 16 15 14 13 12 12 11 11 11 10 10 10 10 9 9 9 9 8 8 8 8 8 8 8 8 8 8 8 8 8 8 8 8 8 8 8 8 8 7 7 7 7
17 16 15 14 13 12 12 11 11 11 10 10 10 9 9 9 9 9 8 8 8 8 8 8 8 8 8 8 8 8 8 8 8 8 8 8 8 8 8 7 7 7 7
16 16 15 14 13 12 12 11 11 11 10 10 10 9 9 9 9 9 8 8 8 8 8 8 8 7 7 7 7 7 7 7 7 7 8 8 8 8 8 7 7 7 7
16 16 15 14 13 12 12 11 11 11 10 10 10 9 9 9 9 9 9 8 8 8 8 8 8 8 7 7 7 7 7 7 7 7 7 7 7 7 8 7 7 7 7
16 16 15 14 13 12 12 11 11 10 10 10 10 10 9 9 9 9 9 9 8 8 8 8 8 8 7 7 7 7 7 7 7 7 7 8 8 8 8 8 8 7 7
16 15 15 14 13 12 12 11 11 10 10 10 10 9 9 9 9 9 9 9 9 8 8 8 8 7 7 7 7 7 7 7 7 7 8 8 8 8 7 7 7 7 7
16 15 15 14 13 12 12 11 11 10 10 10 10 9 9 9 9 9 9 9 8 8 8 8 8 7 7 7 7 7 7 7 8 8 8 8 7 7 7 7 7 7 7
16 15 15 14 13 12 12 11 11 10 10 10 10 10 9 9 9 9 9 8 8 8 8 8 7 7 7 7 7 7 7 8 8 8 8 7 7 7 7 7 7 7 7
15 15 14 14 13 12 11 11 11 10 10 10 10 9 9 9 9 9 9 8 8 8 8 7 7 7 7 7 7 7 8 8 8 8 8 7 7 7 7 7 6 6 6
15 14 14 13 13 12 11 11 11 10 10 10 10 9 9 9 9 9 8 8 8 8 7 7 7 7 7 6 7 7 8 7 8 7 7 7 7 6 6 6 6 6 6
14 14 13 13 12 12 11 11 11 10 10 10 9 9 9 9 9 8 8 8 8 7 7 7 7 6 6 6 5 5 5 6 5 6 6 6 6 6 5 5 5 5 5
14 13 13 13 12 12 11 11 11 10 10 10 9 9 9 9 8 8 8 8 7 7 7 6 6 6 6 5 5 4 3 3 3 4 4 5 5 4 4 5 5 5 5
13 13 13 12 12 12 11 11 11 11 10 10 10 9 9 9 8 8 7 7 7 7 6 6 6 5 5 5 4 4 3 2 2 2 3 3 3 4 4 4 4 4 4
13 12 12 12 12 12 11 11 11 11 10 10 9 9 9 8 8 7 7 7 6 6 6 5 5 5 5 4 4 4 3 3 2 1 1 2 3 3 3 3 3 3 3
12 12 12 12 12 11 11 11 11 11 10 10 9 9 8 8 8 7 7 6 6 6 5 5 5 4 4 4 4 3 3 2 1 0 -0 0 1 2 2 2 2 2 2
Wind_Speed
6 11 17 17 16 14 12 11 12 12 12 12 12 12 12 11 11 11 12 12 13 13 14 14 15 15 15 15 16 16 16 17 18 18 19 18 17 17 17 16 16 16 17
9 16 18 18 17 15 13 12 13 12 12 11 12 11 11 11 11 11 11 11 12 13 13 14 14 14 14 14 15 15 15 15 16 17 18 18 17 16 17 16 16 14 15
10 18 19 19 17 16 14 13 13 12 12 11 11 11 11 11 11 11 11 11 11 12 12 13 13 13 13 12 13 13 14 14 15 16 17 18 16 15 15 15 15 15 14
15 17 17 20 18 16 15 14 13 12 11 11 11 11 11 10 10 10 10 10 11 11 11 12 12 12 11 12 12 13 13 13 14 14 16 16 15 13 13 13 13 13 13
14 16 18 20 19 17 15 15 14 12 11 11 10 10 10 10 9 9 9 9 10 10 10 11 11 11 11 11 11 12 12 12 12 13 14 15 15 12 12 12 11 11 11
11 15 18 20 19 17 16 15 14 13 12 11 10 9 9 9 8 8 8 8 8 9 9 9 10 10 10 9 10 10 10 10 10 12 12 13 13 11 10 10 10 10 10
10 14 17 19 18 17 17 15 14 12 12 11 10 9 8 8 7 7 7 7 7 7 8 8 8 9 8 8 8 9 9 8 8 9 9 11 11 10 9 9 9 9 9
10 13 16 19 18 17 16 15 14 12 12 11 10 9 8 7 6 6 5 5 5 5 6 6 7 7 7 7 8 8 8 7 6 6 7 9 9 9 9 8 8 8 8
11 12 12 16 17 17 16 16 14 12 11 10 10 9 8 6 6 5 4 3 3 3 4 4 5 5 6 6 7 7 7 6 5 6 7 8 9 10 10 9 8 9 8
7 8 10 12 15 15 16 16 15 13 12 10 10 9 8 6 5 4 3 2 1 1 2 3 4 5 5 6 7 7 7 6 6 7 8 9 10 11 11 11 10 10 10
8 7 8 9 12 14 15 15 15 13 12 11 10 10 8 6 4 4 4 3 2 2 2 3 4 5 5 5 7 7 6 7 8 9 10 11 12 13 13 13 12 12 12
13 10 7 8 10 12 12 13 13 12 11 10 9 9 8 7 6 5 5 5 4 4 4 4 5 5 5 5 7 7 7 8 9 10 12 12 13 14 15 15 14 14 14
12 12 10 8 11 11 10 10 10 10 10 10 10 10 9 7 6 6 5 5 5 5 5 6 6 6 6 6 7 8 9 9 10 11 13 14 14 15 16 16 16 16 16
10 13 11 9 9 11 11 9 9 9 8 8 9 10 9 6 5 5 5 6 6 6 6 6 6 7 7 8 8 9 10 10 11 12 14 14 15 16 17 18 18 18 18
11 13 12 10 9 10 9 8 8 8 9 9 9 9 10 7 6 6 6 6 6 7 6 6 6 6 7 7 8 8 9 10 11 12 13 14 15 16 18 19 19 19 19
11 12 12 12 10 10 8 7 7 9 9 8 8 8 9 9 7 6 5 5 6 6 6 6 6 5 5 6 6 8 9 10 11 12 14 14 15 16 17 18 19 19 19
9 10 12 12 10 9 8 8 8 8 8 7 7 8 8 8 7 5 4 3 4 5 4 4 4 4 3 4 4 7 8 9 11 12 13 13 14 14 15 16 16 17 17
7 9 11 10 10 9 7 7 7 7 7 5 5 5 5 5 5 4 3 2 3 2 1 1 1 2 3 3 4 4 6 8 10 11 12 11 12 11 12 13 14 15 15
7 9 10 10 10 9 7 7 6 6 5 4 5 4 3 3 3 3 2 1 0 1 0 0 0 1 2 4 4 5 5 5 7 9 8 9 9 10 10 11 12 13 15
6 8 9 9 9 8 6 6 5 5 4 5 5 5 5 4 4 4 3 2 2 2 1 1 1 1 2 3 5 5 6 6 4 4 5 6 8 9 9 10 11 12 15
6 8 9 10 9 8 5 5 5 4 3 3 5 6 6 5 5 5 3 3 3 2 2 2 1 2 2 2 3 5 5 5 4 4 3 4 6 8 9 10 11 13 15
7 8 8 9 9 8 6 4 4 4 4 3 4 6 7 6 5 5 4 3 3 2 3 3 2 1 2 2 2 3 5 6 4 4 4 4 4 6 8 11 14 15 16
7 8 9 9 9 8 8 6 5 5 4 3 3 2 4 6 6 6 5 4 3 2 2 1 1 1 1 2 1 1 2 4 5 4 4 4 5 4 5 11 14 17 18
6 6 8 8 8 8 8 8 7 5 4 3 2 2 3 6 6 6 6 5 3 2 1 1 1 1 1 2 2 2 3 3 4 5 4 4 5 6 7 8 11 16 18
7 7 7 8 8 7 7 8 8 6 4 3 3 3 3 4 5 6 5 5 3 2 1 1 1 1 2 2 2 2 3 3 5 6 7 5 5 5 6 7 9 13 17
6 7 8 9 7 7 8 8 9 9 7 6 4 3 2 2 2 4 4 4 3 2 1 1 1 2 2 3 3 3 3 4 4 5 7 8 9 5 6 7 7 9 14
Wind_Direction
205 193 176 161 156 152 149 143 133 123 113 107 102 97 91 87 82 76 71 65 60 58 57 55 54 56 57 56 53 52 52 50 47 44 42 44 52 54 53 51 47 41 42
163 179 174 163 159 154 147 140 134 125 118 113 107 102 96 90 84 79 74 68 64 60 59 57 55 54 56 56 53 50 50 50 47 45 40 32 37 50 50 48 48 46 45
150 170 172 164 161 157 151 146 139 130 124 118 113 108 100 94 87 82 76 72 68 63 61 59 56 55 56 56 52 50 50 49 47 43 36 25 22 43 46 44 43 43 42
155 166 169 165 163 160 155 151 144 136 130 125 120 114 106 98 90 83 78 73 70 66 62 60 58 57 56 55 52 51 50 48 46 41 31 22 16 34 40 40 39 38 38
155 164 169 167 165 163 158 155 149 143 139 134 126 118 110 101 93 85 79 74 71 66 62 59 57 56 55 53 50 47 48 46 42 37 29 20 11 25 33 32 33 32 31
154 163 170 168 168 166 162 159 152 147 145 141 133 125 115 106 97 89 82 76 71 67 63 59 56 53 50 48 45 43 44 43 40 33 24 15 4 15 26 25 24 23 23
153 164 173 171 171 169 166 164 158 155 153 147 141 133 124 115 106 98 90 81 74 66 59 55 52 49 45 41 38 37 38 38 37 26 15 5 356 3 11 13 11 10 11
153 163 175 175 175 172 171 169 165 164 161 157 152 144 136 130 124 117 104 92 78 65 56 50 44 40 36 32 30 27 27 32 29 14 358 348 343 346 352 355 353 352 352
153 160 176 180 177 176 176 173 171 172 169 164 162 156 149 145 143 135 122 107 83 58 44 37 30 23 19 17 16 14 13 20 16 351 336 330 329 332 334 335 334 332 331
155 165 177 181 178 176 177 176 175 176 174 172 170 163 159 160 158 148 137 137 107 24 8 3 360 356 357 357 356 355 357 358 344 328 320 317 320 324 323 322 321 318 316
175 180 181 181 176 174 176 179 179 180 181 178 173 169 165 163 161 165 178 211 249 276 299 320 334 339 348 346 338 337 338 327 317 310 307 307 315 318 318 317 315 312 308
188 189 187 181 175 172 176 179 179 180 181 178 175 171 168 175 185 191 208 226 249 274 287 300 314 326 328 316 313 315 312 306 300 298 298 302 309 312 313 312 311 308 306
190 190 189 183 177 173 171 172 173 175 177 178 180 178 179 185 194 203 219 241 254 263 271 282 295 301 298 293 294 296 296 294 290 290 293 298 303 307 308 308 308 306 304
187 194 191 183 178 175 171 171 172 172 176 181 188 190 185 186 199 210 220 237 246 248 256 268 277 284 286 285 282 285 288 287 286 288 292 295 301 304 305 305 305 304 302
193 195 191 184 181 174 168 172 174 177 184 192 196 199 196 194 205 213 223 231 240 243 244 254 264 272 277 282 282 278 280 283 284 284 285 291 297 301 304 305 305 304 303
196 194 189 187 182 173 171 172 178 185 191 195 201 205 205 206 206 207 218 226 238 243 246 250 259 267 276 280 283 283 281 284 284 284 285 290 295 300 304 306 306 306 304
194 187 187 186 177 174 173 175 176 182 185 188 200 206 206 206 204 203 211 231 247 251 253 263 273 273 279 284 284 288 285 284 283 285 288 290 293 299 305 310 313 313 311
179 176 181 181 175 173 168 167 167 171 174 181 188 190 197 201 200 192 199 229 250 242 237 250 266 288 289 293 292 290 287 286 284 286 290 292 296 299 306 315 322 325 324
171 166 168 166 167 164 152 146 140 139 139 142 140 139 149 161 171 165 165 200 162 109 58 335 350 281 296 305 297 288 282 277 283 292 294 298 303 306 311 318 325 331 331
146 149 152 149 150 141 129 119 110 103 98 101 101 101 99 99 107 114 105 85 83 84 49 28 343 316 293 304 303 297 287 288 293 291 294 304 312 318 321 322 325 329 329
124 136 145 146 146 142 137 134 130 123 108 89 80 81 84 87 93 99 94 77 73 79 60 33 18 354 336 342 340 321 311 310 314 294 293 308 316 321 325 325 323 322 320
140 140 141 146 148 149 143 133 125 124 110 94 83 73 70 78 85 93 93 86 76 77 54 44 46 16 339 9 11 339 334 333 334 319 319 308 306 321 322 321 320 315 310
150 151 149 146 144 138 130 116 101 90 82 78 68 60 48 69 79 85 90 91 82 88 72 38 66 89 309 319 262 225 316 298 304 301 297 291 297 306 306 308 305 301 301
161 148 139 139 137 136 138 140 139 138 140 142 128 98 61 65 71 80 88 90 86 84 64 3 68 181 197 282 299 247 231 235 277 304 298 286 287 288 289 294 293 293 293
154 147 139 133 130 133 136 139 132 124 127 124 111 98 75 56 64 73 83 83 76 69 54 9 352 249 212 228 242 255 263 256 235 257 287 294 292 264 270 274 281 284 286
149 145 142 136 132 135 133 135 137 137 139 135 130 121 98 69 55 59 76 77 71 58 19 326 286 271 247 243 244 232 231 243 244 246 270 290 294 281 271 266 270 277 284
Height
1538 1539 1542 1544 1546 1547 1549 1550 1551 1552 1552 1552 1553 1553 1552 1552 1552 1552 1552 1552 1552 1552 1552 1552 1551 1551 1551 1551 1550 1550 1549 1549 1549 1548 1548 1548 1548 1548 1547 1547 1547 1547 1547
1538 1539 1541 1544 1546 1547 1549 1550 1552 1552 1553 1553 1554 1554 1553 1553 1553 1553 1553 1553 1553 1553 1553 1552 1552 1552 1551 1551 1551 1550 1550 1549 1549 1549 1549 1549 1548 1548 1548 1547 1547 1547 1547
1538 1539 1541 1543 1546 1548 1549 1551 1552 1553 1553 1554 1554 1554 1554 1554 1554 1554 1554 1554 1554 1554 1553 1553 1552 1552 1552 1552 1551 1551 1550 1550 1550 1550 1550 1549 1549 1549 1548 1547 1547 1547 1547
1538 1540 1541 1544 1546 1547 1549 1551 1552 1553 1554 1554 1555 1555 1555 1555 1555 1555 1555 1555 1555 1554 1554 1553 1553 1553 1552 1552 1552 1551 1551 1551 1551 1550 1550 1550 1549 1549 1549 1548 1547 1547 1546
1538 1540 1542 1544 1546 1547 1549 1551 1552 1553 1554 1555 1556 1556 1556 1556 1556 1556 1556 1556 1555 1555 1555 1554 1554 1553 1553 1553 1553 1552 1552 1551 1551 1551 1551 1550 1550 1550 1549 1548 1547 1547 1547
1539 1540 1542 1544 1546 1548 1549 1551 1552 1553 1554 1555 1556 1556 1557 1557 1557 1557 1556 1556 1556 1556 1556 1555 1555 1554 1554 1554 1553 1553 1552 1552 1552 1551 1551 1550 1550 1550 1549 1548 1548 1547 1547
1539 1540 1542 1544 1546 1548 1549 1551 1552 1553 1554 1555 1556 1557 1557 1557 1557 1557 1557 1557 1557 1557 1556 1556 1556 1555 1555 1554 1554 1553 1553 1553 1552 1552 1551 1551 1550 1550 1549 1549 1548 1547 1546
1539 1540 1542 1544 1546 1548 1549 1551 1552 1554 1555 1556 1556 1557 1558 1558 1558 1558 1558 1558 1558 1557 1557 1557 1556 1556 1556 1555 1554 1554 1553 1553 1553 1552 1551 1551 1550 1549 1549 1548 1548 1547 1546
1539 1540 1542 1543 1546 1548 1549 1551 1552 1554 1555 1556 1557 1557 1558 1558 1558 1558 1558 1558 1558 1558 1558 1557 1557 1557 1556 1556 1555 1554 1554 1553 1553 1552 1551 1550 1549 1549 1549 1548 1547 1547 1546
1537 1539 1541 1543 1545 1547 1549 1551 1552 1554 1555 1556 1557 1558 1558 1558 1559 1559 1559 1559 1559 1558 1558 1558 1557 1557 1557 1556 1555 1554 1554 1553 1552 1551 1550 1550 1549 1548 1548 1548 1547 1546 1545
1536 1538 1540 1542 1544 1546 1548 1550 1552 1553 1555 1556 1557 1557 1558 1558 1559 1559 1559 1559 1558 1558 1558 1558 1557 1557 1556 1555 1555 1554 1553 1552 1551 1550 1549 1548 1547 1547 1546 1546 1546 1545 1544
1533 1535 1538 1540 1542 1545 1547 1549 1551 1552 1554 1555 1556 1557 1557 1558 1558 1558 1558 1558 1558 1558 1558 1557 1557 1556 1555 1554 1554 1553 1552 1551 1550 1549 1548 1547 1546 1545 1544 1544 1544 1543 1542
1532 1534 1536 1538 1541 1543 1545 1547 1549 1551 1553 1554 1555 1556 1557 1557 1557 1558 1558 1558 1557 1557 1557 1556 1555 1555 1554 1553 1552 1551 1550 1549 1548 1547 1546 1545 1543 1542 1542 1541 1541 1540 1539
1529 1531 1534 1536 1539 1541 1544 1546 1548 1550 1552 1553 1554 1555 1556 1556 1556 1557 1557 1556 1556 1556 1555 1554 1554 1553 1552 1551 1550 1549 1548 1546 1545 1544 1543 1542 1540 1539 1538 1537 1537 1536 1535
1526 1528 1531 1534 1536 1539 1542 1544 1546 1548 1550 1552 1553 1554 1554 1555 1555 1555 1555 1555 1554 1554 1553 1553 1552 1551 1550 1549 1548 1546 1545 1543 1542 1541 1539 1538 1537 1535 1534 1533 1532 1531 1531
1523 1525 1528 1531 1534 1537 1540 1542 1545 1547 1549 1550 1551 1552 1553 1553 1553 1553 1553 1553 1552 1552 1551 1550 1549 1548 1547 1546 1544 1543 1541 1540 1538 1537 1535 1534 1533 1531 1530 1528 1527 1526 1525
1519 1522 1525 1528 1532 1535 1538 1541 1543 1545 1547 1548 1549 1550 1550 1551 1551 1551 1551 1550 1550 1549 1548 1547 1546 1545 1544 1542 1541 1539 1537 1536 1534 1533 1531 1530 1528 1527 1526 1524 1523 1521 1520
1516 1519 1522 1526 1529 1533 1536 1539 1541 1543 1545 1546 1547 1548 1548 1548 1548 1548 1548 1548 1547 1546 1545 1544 1543 1541 1540 1538 1536 1535 1533 1531 1530 1528 1527 1526 1524 1523 1522 1520 1518 1517 1516
1513 1516 1519 1523 1527 1530 1534 1537 1539 1541 1543 1544 1545 1545 1546 1546 1546 1545 1545 1544 1544 1543 1542 1540 1539 1538 1536 1534 1532 1530 1529 1527 1525 1524 1523 1522 1520 1519 1518 1516 1515 1513 1512
1511 1514 1517 1520 1524 1528 1531 1534 1537 1539 1540 1541 1542 1543 1543 1543 1543 1542 1542 1541 1540 1539 1538 1537 1536 1534 1532 1530 1528 1526 1524 1522 1521 1519 1518 1518 1517 1516 1514 1513 1511 1509 1507
1509 1511 1514 1518 1522 1525 1528 1531 1534 1536 1538 1539 1540 1540 1540 1540 1540 1539 1539 1538 1537 1536 1535 1534 1532 1531 1529 1526 1524 1521 1519 1517 1516 1514 1514 1514 1513 1512 1510 1508 1506 1505 1503
1507 1510 1513 1516 1519 1523 1526 1529 1532 1534 1535 1536 1537 1537 1538 1537 1537 1536 1536 1535 1534 1533 1532 1530 1529 1528 1526 1524 1521 1517 1514 1512 1510 1511 1510 1509 1508 1507 1505 1503 1502 1499 1497
1505 1508 1511 1514 1518 1521 1524 1527 1529 1531 1533 1534 1535 1535 1535 1535 1534 1534 1533 1532 1531 1530 1529 1527 1526 1525 1523 1521 1519 1518 1515 1510 1506 1502 1503 1502 1501 1501 1499 1497 1495 1493 1491
1503 1506 1509 1513 1516 1519 1522 1524 1526 1528 1530 1531 1532 1533 1533 1532 1532 1531 1530 1529 1528 1527 1526 1525 1523 1521 1520 1518 1517 1515 1514 1510 1506 1499 1496 1496 1495 1493 1492 1490 1488 1486 1484
1501 1504 1507 1511 1514 1517 1520 1522 1524 1526 1527 1529 1530 1530 1530 1530 1529 1529 1528 1527 1526 1524 1523 1521 1520 1518 1516 1514 1513 1511 1509 1507 1504 1499 1490 1487 1486 1485 1484 1482 1480 1478 1476
1498 1502 1505 1508 1512 1515 1517 1520 1522 1524 1525 1526 1527 1527 1528 1527 1527 1526 1525 1524 1523 1521 1520 1518 1516 1514 1513 1511 1509 1506 1504 1502 1499 1495 1488 1481 1477 1476 1475 1474 1472 1470 1467